Flag for Norway Weather past 2 weeks in Bryne, Norway

Now
57 °F

Cool.


Feels Like: 58 °F
Forecast: 54 / 64 °F
Wind: 3 mph from Southeast

Location: Obrestad

Current Time: Aug 31, 2014 at 12:13:37 AM

Latest Report: Aug 30, 2014 at 11:00 PM


Visibility: N/A

Pressure: 29.80 "Hg

Humidity: 94%

Dew point: 56 °F

Location of BryneLocation

Historic Weather in Bryne — Graph

°F

Bryne temperature yesterday

Maximum temperature yesterday: 61 °F (at 11:00 AM)
Minimum temperature yesterday: 56 °F (at 10:00 PM)
Average temperature yesterday: 59 °F

Past Weeks' High & Low Weather Summary

 TemperatureHumidityPressure
High62 °F (Aug 29, 12:00 PM)97% (Aug 27, 4:00 AM)29.99 "Hg (Aug 27, 4:00 AM)
Low47 °F (Aug 18, 3:00 AM)62% (Aug 16, 2:00 AM)29.21 "Hg (Aug 18, 10:00 AM)
Average56 °F83%29.68 "Hg
* Reported Aug 15 10:00 PM — Aug 30 10:00 PM, Bryne, Weather by CustomWeather, © 2014

Note: Actual official high and low records may vary slightly from our data, if they occured in-between our weather recording intervals... More about our weather records

Advertising

Bryne weather history for previous 24 hours

 ConditionsComfort  
Time TempWeatherWind HumidityBarometerVisibility
10:00 PM
Aug 30
56 °FCool.3 mph92%29.80 "HgN/A
9:00 PM59 °FCool.5 mph89%29.78 "HgN/A
8:00 PM60 °FCool.7 mph85%29.76 "HgN/A
7:00 PM60 °FCool.6 mph85%29.75 "HgN/A
6:00 PM59 °FCool.7 mph91%29.76 "HgN/A
5:00 PM61 °FCool.9 mph80%29.75 "HgN/A
4:00 PM60 °FCool.9 mph85%29.75 "HgN/A
3:00 PM58 °FCool.6 mph90%29.75 "HgN/A
2:00 PM58 °FCool.7 mph89%29.73 "HgN/A
1:00 PM58 °FCool.8 mph87%29.73 "HgN/A
12:00 PM59 °FCool.8 mph85%29.72 "HgN/A
11:00 AM61 °FCool.9 mph75%29.72 "HgN/A
10:00 AM60 °FCool.7 mph77%29.73 "HgN/A
9:00 AM59 °FCool.7 mph80%29.74 "HgN/A
8:00 AM58 °FCool.7 mph82%29.75 "HgN/A
7:00 AM58 °FCool.7 mph83%29.75 "HgN/A
6:00 AM58 °FCool.8 mph83%29.75 "HgN/A
5:00 AM57 °FCool.7 mph85%29.76 "HgN/A
4:00 AM57 °FCool.8 mph87%29.78 "HgN/A
3:00 AM58 °FCool.8 mph84%29.78 "HgN/A
2:00 AM58 °FCool.8 mph84%29.78 "HgN/A
1:00 AM57 °FCool.8 mph85%29.79 "HgN/A
12:00 AM58 °FCool.9 mph83%29.79 "HgN/A
Weather by CustomWeather, © 2014

See weather overviewHow to use our weather pages